QPF
0.03 0.03 0.03 0.04 0.05 0.03 0.03 0.03 0.02 0.03 0.05 0.05 0.04 0.04 0.04 0.06 0.05 0.05 0.05 0.04 0.05 0.04 0.04 0.04 0.04 0.05 0.04 0.04 0.03 0.04 0.03 0.03 0.03 0.03 0.02 0.01 0.01 0.01 0.01 0.01 0.01 0.01 0.01
0.03 0.04 0.06 0.07 0.06 0.04 0.02 0.03 0.04 0.04 0.04 0.03 0.06 0.06 0.04 0.04 0.04 0.06 0.06 0.06 0.07 0.06 0.05 0.07 0.06 0.05 0.05 0.05 0.04 0.05 0.05 0.05 0.05 0.05 0.04 0.03 0.02 0.02 0.02 0.02 0.02 0.02 0.02
0.05 0.05 0.06 0.07 0.07 0.05 0.04 0.05 0.06 0.06 0.05 0.04 0.04 0.05 0.04 0.05 0.06 0.07 0.06 0.11 0.09 0.06 0.07 0.09 0.07 0.05 0.04 0.05 0.05 0.05 0.04 0.04 0.04 0.05 0.05 0.04 0.03 0.03 0.03 0.02 0.03 0.03 0.02
0.06 0.04 0.05 0.05 0.04 0.04 0.05 0.06 0.07 0.07 0.06 0.05 0.05 0.05 0.06 0.09 0.10 0.08 0.07 0.06 0.07 0.05 0.05 0.05 0.04 0.04 0.04 0.05 0.06 0.06 0.05 0.04 0.03 0.03 0.04 0.05 0.05 0.04 0.04 0.03 0.04 0.03 0.03
0.05 0.05 0.05 0.03 0.04 0.04 0.06 0.07 0.07 0.06 0.05 0.04 0.04 0.05 0.06 0.06 0.06 0.05 0.05 0.04 0.05 0.06 0.07 0.06 0.05 0.03 0.04 0.05 0.07 0.07 0.05 0.04 0.03 0.03 0.03 0.03 0.04 0.05 0.05 0.04 0.03 0.03 0.03
0.03 0.04 0.04 0.04 0.04 0.06 0.07 0.07 0.07 0.05 0.04 0.05 0.05 0.05 0.06 0.06 0.05 0.04 0.04 0.04 0.04 0.05 0.05 0.04 0.05 0.04 0.05 0.05 0.05 0.08 0.07 0.05 0.05 0.04 0.03 0.03 0.03 0.03 0.03 0.04 0.04 0.04 0.04
0.03 0.04 0.04 0.06 0.06 0.06 0.08 0.07 0.06 0.04 0.04 0.04 0.04 0.05 0.06 0.09 0.09 0.05 0.04 0.03 0.04 0.04 0.05 0.04 0.04 0.04 0.03 0.02 0.02 0.03 0.04 0.05 0.05 0.04 0.04 0.03 0.03 0.03 0.03 0.03 0.03 0.03 0.03
0.04 0.05 0.05 0.06 0.06 0.06 0.07 0.06 0.04 0.04 0.03 0.04 0.05 0.03 0.02 0.04 0.04 0.03 0.03 0.03 0.02 0.02 0.02 0.02 0.02 0.02 0.02 0.02 0.01 0.02 0.03 0.04 0.04 0.04 0.03 0.03 0.02 0.02 0.02 0.02 0.02 0.02 0.03
0.03 0.04 0.05 0.05 0.06 0.05 0.04 0.05 0.04 0.04 0.04 0.05 0.05 0.05 0.03 0.02 0.02 0.02 0.02 0.03 0.02 0.01 0.01 0.01 0.01 0.02 0.02 0.02 0.02 0.02 0.03 0.04 0.05 0.05 0.04 0.03 0.02 0.02 0.02 0.02 0.03 0.03 0.02
0.03 0.03 0.04 0.04 0.05 0.05 0.04 0.05 0.05 0.05 0.05 0.05 0.06 0.05 0.03 0.03 0.02 0.02 0.03 0.03 0.03 0.02 0.02 0.02 0.02 0.02 0.02 0.03 0.02 0.02 0.02 0.03 0.04 0.05 0.04 0.05 0.03 0.02 0.02 0.02 0.03 0.03 0.03
0.02 0.03 0.04 0.05 0.03 0.04 0.03 0.04 0.04 0.05 0.04 0.04 0.04 0.04 0.03 0.03 0.03 0.03 0.02 0.04 0.04 0.04 0.04 0.03 0.02 0.04 0.05 0.05 0.03 0.02 0.02 0.03 0.03 0.03 0.04 0.05 0.04 0.04 0.03 0.03 0.03 0.03 0.04
0.01 0.01 0.02 0.03 0.02 0.01 0.02 0.03 0.04 0.04 0.03 0.03 0.03 0.03 0.03 0.03 0.02 0.04 0.02 0.02 0.03 0.02 0.02 0.02 0.03 0.05 0.05 0.05 0.02 0.02 0.02 0.04 0.04 0.04 0.04 0.04 0.05 0.05 0.04 0.04 0.04 0.04 0.04
0.00 0.01 0.01 0.01 0.01 0.01 0.01 0.03 0.04 0.03 0.02 0.02 0.02 0.03 0.03 0.02 0.02 0.03 0.03 0.02 0.04 0.03 0.02 0.02 0.03 0.05 0.04 0.04 0.05 0.05 0.03 0.05 0.05 0.04 0.03 0.03 0.04 0.05 0.05 0.05 0.06 0.06 0.04
0.01 0.01 0.00 0.01 0.01 0.01 0.01 0.02 0.02 0.02 0.02 0.02 0.02 0.03 0.03 0.02 0.03 0.04 0.04 0.05 0.06 0.05 0.03 0.02 0.02 0.03 0.04 0.04 0.05 0.07 0.06 0.05 0.04 0.04 0.04 0.05 0.05 0.04 0.03 0.03 0.04 0.04 0.04
0.01 0.01 0.01 0.01 0.01 0.02 0.02 0.03 0.02 0.02 0.02 0.02 0.02 0.03 0.03 0.02 0.03 0.04 0.05 0.06 0.07 0.06 0.04 0.03 0.02 0.03 0.03 0.03 0.03 0.05 0.06 0.06 0.04 0.04 0.04 0.04 0.05 0.04 0.02 0.02 0.02 0.02 0.02
0.02 0.02 0.01 0.01 0.02 0.02 0.03 0.03 0.02 0.02 0.03 0.02 0.02 0.03 0.03 0.04 0.03 0.03 0.05 0.08 0.08 0.07 0.05 0.03 0.03 0.03 0.04 0.03 0.03 0.03 0.05 0.07 0.07 0.06 0.05 0.03 0.03 0.02 0.01 0.01 0.01 0.01 0.02
0.02 0.02 0.01 0.02 0.02 0.02 0.02 0.03 0.03 0.04 0.03 0.02 0.02 0.04 0.04 0.05 0.05 0.05 0.06 0.07 0.09 0.10 0.07 0.05 0.06 0.05 0.05 0.03 0.03 0.03 0.04 0.04 0.04 0.03 0.03 0.03 0.03 0.03 0.02 0.01 0.01 0.01 0.01
0.02 0.01 0.02 0.03 0.02 0.03 0.03 0.03 0.03 0.03 0.03 0.02 0.03 0.05 0.05 0.05 0.05 0.07 0.09 0.07 0.07 0.09 0.08 0.06 0.07 0.07 0.05 0.05 0.06 0.06 0.06 0.04 0.04 0.03 0.03 0.03 0.03 0.03 0.02 0.02 0.02 0.02 0.02
0.02 0.01 0.02 0.02 0.02 0.03 0.03 0.02 0.03 0.02 0.02 0.02 0.04 0.05 0.04 0.04 0.04 0.06 0.07 0.07 0.06 0.08 0.08 0.07 0.05 0.06 0.04 0.04 0.06 0.06 0.06 0.05 0.06 0.06 0.04 0.03 0.02 0.03 0.03 0.03 0.03 0.02 0.02
0.02 0.02 0.01 0.02 0.02 0.02 0.03 0.03 0.02 0.03 0.02 0.02 0.03 0.03 0.03 0.04 0.05 0.06 0.06 0.07 0.08 0.08 0.09 0.09 0.07 0.07 0.06 0.05 0.06 0.05 0.04 0.03 0.04 0.08 0.08 0.05 0.04 0.04 0.04 0.05 0.05 0.03 0.03
0.02 0.03 0.02 0.03 0.03 0.03 0.02 0.02 0.02 0.03 0.03 0.02 0.02 0.02 0.03 0.05 0.05 0.06 0.05 0.06 0.09 0.09 0.10 0.09 0.07 0.06 0.05 0.06 0.05 0.05 0.05 0.04 0.04 0.05 0.07 0.08 0.07 0.06 0.05 0.05 0.05 0.04 0.03
0.04 0.04 0.04 0.04 0.04 0.03 0.04 0.03 0.03 0.03 0.04 0.03 0.03 0.03 0.04 0.05 0.05 0.05 0.05 0.06 0.06 0.07 0.06 0.04 0.05 0.04 0.04 0.05 0.04 0.04 0.05 0.06 0.05 0.05 0.08 0.07 0.08 0.07 0.05 0.05 0.05 0.04 0.03
0.05 0.04 0.05 0.05 0.04 0.04 0.05 0.06 0.06 0.05 0.04 0.04 0.04 0.04 0.04 0.04 0.04 0.04 0.05 0.06 0.05 0.04 0.04 0.03 0.04 0.03 0.03 0.04 0.04 0.04 0.05 0.05 0.05 0.06 0.08 0.07 0.07 0.07 0.08 0.08 0.06 0.05 0.04
0.04 0.05 0.05 0.06 0.04 0.04 0.05 0.06 0.06 0.06 0.05 0.05 0.05 0.06 0.06 0.06 0.07 0.08 0.08 0.07 0.06 0.04 0.04 0.04 0.03 0.03 0.03 0.03 0.04 0.04 0.05 0.05 0.05 0.06 0.08 0.08 0.08 0.08 0.06 0.06 0.05 0.04 0.03
0.06 0.06 0.06 0.05 0.05 0.05 0.06 0.05 0.06 0.07 0.06 0.05 0.05 0.04 0.04 0.04 0.06 0.07 0.07 0.08 0.08 0.06 0.06 0.05 0.04 0.04 0.03 0.04 0.05 0.05 0.04 0.05 0.05 0.05 0.06 0.06 0.06 0.06 0.06 0.05 0.05 0.05 0.04
0.06 0.06 0.06 0.05 0.05 0.06 0.05 0.05 0.06 0.05 0.05 0.06 0.06 0.06 0.06 0.05 0.05 0.07 0.08 0.07 0.07 0.06 0.06 0.05 0.05 0.05 0.04 0.04 0.04 0.04 0.04 0.04 0.03 0.03 0.03 0.05 0.05 0.05 0.04 0.03 0.03 0.03 0.03
MSLP
1016.37 1016.50 1016.57 1016.60 1016.62 1016.64 1016.68 1016.74 1016.80 1016.84 1016.86 1016.83 1016.77 1016.69 1016.60 1016.54 1016.53 1016.59 1016.71 1016.89 1017.11 1017.33 1017.54 1017.71 1017.84 1017.92 1017.97 1018.01 1018.05 1018.11 1018.19 1018.30 1018.43 1018.59 1018.74 1018.90 1019.03 1019.14 1019.23 1019.30 1019.34 1019.38 1019.42
1016.28 1016.43 1016.53 1016.59 1016.63 1016.67 1016.71 1016.75 1016.78 1016.81 1016.80 1016.76 1016.69 1016.59 1016.49 1016.40 1016.35 1016.36 1016.43 1016.56 1016.73 1016.93 1017.13 1017.31 1017.47 1017.58 1017.67 1017.73 1017.78 1017.84 1017.91 1018.01 1018.13 1018.28 1018.43 1018.58 1018.73 1018.85 1018.94 1019.01 1019.06 1019.10 1019.13
1016.07 1016.27 1016.42 1016.54 1016.62 1016.69 1016.74 1016.78 1016.81 1016.82 1016.81 1016.76 1016.67 1016.56 1016.44 1016.32 1016.22 1016.15 1016.15 1016.20 1016.30 1016.45 1016.62 1016.79 1016.96 1017.11 1017.23 1017.32 1017.40 1017.46 1017.54 1017.63 1017.74 1017.87 1018.02 1018.18 1018.34 1018.47 1018.58 1018.67 1018.73 1018.78 1018.82
1015.77 1016.01 1016.22 1016.41 1016.56 1016.67 1016.76 1016.82 1016.86 1016.87 1016.86 1016.80 1016.72 1016.60 1016.45 1016.29 1016.13 1015.99 1015.88 1015.83 1015.84 1015.91 1016.02 1016.17 1016.33 1016.49 1016.64 1016.76 1016.86 1016.94 1017.02 1017.11 1017.21 1017.34 1017.49 1017.65 1017.82 1017.98 1018.12 1018.23 1018.32 1018.39 1018.45
1015.38 1015.66 1015.94 1016.20 1016.42 1016.60 1016.73 1016.83 1016.89 1016.91 1016.91 1016.87 1016.79 1016.67 1016.51 1016.32 1016.10 1015.87 1015.66 1015.50 1015.39 1015.35 1015.39 1015.48 1015.61 1015.77 1015.92 1016.06 1016.17 1016.26 1016.35 1016.43 1016.53 1016.65 1016.79 1016.97 1017.15 1017.34 1017.50 1017.66 1017.78 1017.88 1017.97
1014.95 1015.26 1015.59 1015.90 1016.19 1016.43 1016.61 1016.75 1016.84 1016.90 1016.92 1016.91 1016.85 1016.75 1016.59 1016.37 1016.10 1015.80 1015.50 1015.22 1014.99 1014.84 1014.77 1014.78 1014.86 1014.99 1015.13 1015.26 1015.37 1015.46 1015.54 1015.61 1015.69 1015.80 1015.94 1016.12 1016.32 1016.53 1016.74 1016.92 1017.09 1017.23 1017.34
1014.53 1014.84 1015.19 1015.54 1015.87 1016.16 1016.39 1016.57 1016.70 1016.79 1016.85 1016.87 1016.86 1016.79 1016.65 1016.43 1016.13 1015.78 1015.39 1015.01 1014.67 1014.41 1014.24 1014.16 1014.17 1014.24 1014.34 1014.44 1014.53 1014.60 1014.64 1014.69 1014.74 1014.83 1014.96 1015.14 1015.34 1015.58 1015.81 1016.04 1016.25 1016.42 1016.58
1014.16 1014.45 1014.79 1015.15 1015.50 1015.81 1016.06 1016.27 1016.43 1016.56 1016.67 1016.74 1016.78 1016.76 1016.65 1016.46 1016.16 1015.78 1015.34 1014.89 1014.46 1014.11 1013.84 1013.67 1013.60 1013.60 1013.64 1013.69 1013.73 1013.74 1013.75 1013.74 1013.76 1013.81 1013.91 1014.07 1014.28 1014.52 1014.78 1015.04 1015.29 1015.51 1015.70
1013.86 1014.11 1014.43 1014.77 1015.10 1015.41 1015.67 1015.89 1016.07 1016.23 1016.37 1016.50 1016.59 1016.63 1016.58 1016.43 1016.16 1015.79 1015.34 1014.85 1014.37 1013.94 1013.60 1013.35 1013.20 1013.12 1013.09 1013.07 1013.04 1012.98 1012.92 1012.85 1012.81 1012.81 1012.87 1013.00 1013.20 1013.44 1013.72 1014.00 1014.28 1014.54 1014.77
1013.65 1013.85 1014.12 1014.41 1014.71 1014.99 1015.23 1015.44 1015.63 1015.81 1015.98 1016.15 1016.30 1016.39 1016.41 1016.31 1016.10 1015.76 1015.33 1014.85 1014.35 1013.90 1013.51 1013.20 1012.99 1012.83 1012.72 1012.62 1012.51 1012.37 1012.22 1012.08 1011.96 1011.90 1011.91 1012.01 1012.18 1012.42 1012.70 1013.00 1013.31 1013.61 1013.89
1013.48 1013.64 1013.86 1014.10 1014.35 1014.59 1014.80 1014.98 1015.16 1015.34 1015.53 1015.72 1015.91 1016.05 1016.12 1016.09 1015.94 1015.66 1015.28 1014.83 1014.36 1013.91 1013.51 1013.18 1012.91 1012.70 1012.52 1012.34 1012.14 1011.92 1011.69 1011.46 1011.27 1011.14 1011.10 1011.16 1011.30 1011.53 1011.82 1012.14 1012.47 1012.81 1013.13
1013.31 1013.44 1013.62 1013.82 1014.02 1014.21 1014.38 1014.53 1014.68 1014.85 1015.03 1015.24 1015.45 1015.62 1015.74 1015.77 1015.68 1015.46 1015.15 1014.76 1014.34 1013.92 1013.54 1013.21 1012.92 1012.68 1012.44 1012.19 1011.92 1011.62 1011.30 1011.00 1010.74 1010.56 1010.47 1010.49 1010.62 1010.84 1011.13 1011.47 1011.84 1012.20 1012.57
1013.09 1013.21 1013.36 1013.53 1013.70 1013.86 1013.99 1014.11 1014.23 1014.37 1014.54 1014.74 1014.94 1015.13 1015.27 1015.34 1015.30 1015.15 1014.90 1014.59 1014.23 1013.87 1013.53 1013.22 1012.94 1012.67 1012.40 1012.11 1011.78 1011.42 1011.05 1010.69 1010.38 1010.16 1010.04 1010.04 1010.16 1010.38 1010.68 1011.04 1011.42 1011.82 1012.22
1012.78 1012.91 1013.06 1013.22 1013.38 1013.51 1013.63 1013.72 1013.82 1013.93 1014.07 1014.24 1014.43 1014.61 1014.75 1014.83 1014.82 1014.72 1014.54 1014.29 1014.01 1013.71 1013.43 1013.16 1012.90 1012.64 1012.36 1012.05 1011.69 1011.30 1010.90 1010.50 1010.17 1009.93 1009.79 1009.79 1009.90 1010.13 1010.45 1010.82 1011.23 1011.66 1012.08
1012.37 1012.53 1012.70 1012.88 1013.05 1013.19 1013.30 1013.39 1013.46 1013.55 1013.66 1013.79 1013.94 1014.09 1014.21 1014.29 1014.29 1014.22 1014.08 1013.89 1013.67 1013.44 1013.21 1012.99 1012.77 1012.54 1012.28 1011.97 1011.61 1011.22 1010.81 1010.42 1010.09 1009.84 1009.71 1009.71 1009.84 1010.07 1010.39 1010.78 1011.20 1011.64 1012.07
1011.90 1012.10 1012.31 1012.53 1012.73 1012.89 1013.02 1013.11 1013.18 1013.25 1013.32 1013.41 1013.52 1013.62 1013.70 1013.74 1013.74 1013.68 1013.56 1013.41 1013.24 1013.07 1012.90 1012.73 1012.56 1012.37 1012.14 1011.86 1011.53 1011.16 1010.78 1010.42 1010.11 1009.88 1009.77 1009.78 1009.91 1010.14 1010.46 1010.84 1011.25 1011.68 1012.11
1011.44 1011.67 1011.94 1012.20 1012.44 1012.64 1012.80 1012.90 1012.98 1013.03 1013.07 1013.12 1013.17 1013.22 1013.26 1013.26 1013.23 1013.15 1013.05 1012.92 1012.79 1012.65 1012.53 1012.41 1012.29 1012.14 1011.96 1011.74 1011.46 1011.14 1010.80 1010.48 1010.21 1010.02 1009.92 1009.94 1010.06 1010.27 1010.57 1010.91 1011.30 1011.69 1012.09
1011.05 1011.33 1011.63 1011.94 1012.23 1012.47 1012.66 1012.78 1012.86 1012.90 1012.92 1012.92 1012.92 1012.92 1012.90 1012.86 1012.79 1012.70 1012.59 1012.47 1012.35 1012.25 1012.16 1012.09 1012.01 1011.92 1011.79 1011.62 1011.41 1011.15 1010.88 1010.61 1010.38 1010.21 1010.13 1010.13 1010.23 1010.40 1010.64 1010.93 1011.25 1011.59 1011.93
1010.79 1011.10 1011.45 1011.80 1012.12 1012.40 1012.60 1012.74 1012.82 1012.84 1012.83 1012.80 1012.76 1012.70 1012.63 1012.55 1012.45 1012.33 1012.21 1012.09 1011.99 1011.91 1011.85 1011.81 1011.77 1011.73 1011.66 1011.55 1011.40 1011.21 1011.00 1010.79 1010.59 1010.44 1010.35 1010.32 1010.37 1010.48 1010.64 1010.84 1011.07 1011.32 1011.59
1010.69 1011.02 1011.40 1011.77 1012.12 1012.41 1012.62 1012.76 1012.83 1012.84 1012.80 1012.74 1012.65 1012.56 1012.45 1012.33 1012.20 1012.07 1011.94 1011.82 1011.72 1011.65 1011.61 1011.60 1011.60 1011.60 1011.58 1011.53 1011.44 1011.31 1011.16 1010.99 1010.82 1010.67 1010.55 1010.48 1010.46 1010.47 1010.53 1010.62 1010.75 1010.90 1011.09
1010.72 1011.07 1011.45 1011.83 1012.18 1012.47 1012.68 1012.81 1012.86 1012.84 1012.78 1012.68 1012.57 1012.45 1012.31 1012.18 1012.04 1011.90 1011.77 1011.65 1011.56 1011.50 1011.47 1011.47 1011.50 1011.53 1011.55 1011.54 1011.51 1011.43 1011.32 1011.18 1011.03 1010.87 1010.72 1010.58 1010.47 1010.39 1010.33 1010.31 1010.32 1010.38 1010.48
1010.83 1011.17 1011.55 1011.93 1012.26 1012.54 1012.73 1012.83 1012.86 1012.82 1012.73 1012.61 1012.48 1012.34 1012.21 1012.07 1011.93 1011.80 1011.68 1011.57 1011.48 1011.43 1011.41 1011.42 1011.46 1011.51 1011.56 1011.59 1011.59 1011.55 1011.47 1011.35 1011.20 1011.02 1010.83 1010.63 1010.44 1010.25 1010.09 1009.96 1009.86 1009.82 1009.85
1010.93 1011.27 1011.64 1012.00 1012.31 1012.56 1012.72 1012.80 1012.80 1012.73 1012.63 1012.50 1012.37 1012.23 1012.10 1011.98 1011.86 1011.75 1011.64 1011.55 1011.48 1011.43 1011.42 1011.43 1011.47 1011.53 1011.59 1011.64 1011.66 1011.64 1011.58 1011.48 1011.32 1011.12 1010.90 1010.64 1010.38 1010.11 1009.86 1009.63 1009.46 1009.34 1009.30
1010.96 1011.30 1011.66 1011.99 1012.28 1012.50 1012.63 1012.68 1012.66 1012.58 1012.47 1012.35 1012.22 1012.11 1012.00 1011.91 1011.82 1011.73 1011.65 1011.58 1011.52 1011.48 1011.46 1011.48 1011.51 1011.57 1011.63 1011.68 1011.71 1011.70 1011.65 1011.55 1011.40 1011.19 1010.94 1010.65 1010.33 1010.01 1009.70 1009.42 1009.18 1009.01 1008.93
1010.90 1011.23 1011.57 1011.89 1012.16 1012.35 1012.47 1012.50 1012.47 1012.39 1012.29 1012.18 1012.07 1011.99 1011.92 1011.86 1011.80 1011.75 1011.70 1011.64 1011.59 1011.56 1011.54 1011.54 1011.57 1011.61 1011.66 1011.70 1011.74 1011.73 1011.69 1011.60 1011.44 1011.24 1010.98 1010.68 1010.35 1010.01 1009.67 1009.36 1009.09 1008.90 1008.79
1010.75 1011.08 1011.41 1011.71 1011.97 1012.15 1012.26 1012.29 1012.26 1012.20 1012.11 1012.02 1011.95 1011.90 1011.86 1011.84 1011.82 1011.80 1011.77 1011.73 1011.69 1011.65 1011.63 1011.62 1011.63 1011.66 1011.69 1011.73 1011.75 1011.75 1011.71 1011.63 1011.49 1011.29 1011.05 1010.76 1010.44 1010.11 1009.78 1009.47 1009.21 1009.00 1008.88
Thickness
5759 5758 5758 5758 5758 5757 5756 5755 5755 5755 5755 5755 5755 5755 5754 5753 5752 5751 5749 5748 5747 5745 5743 5742 5740 5739 5738 5737 5735 5734 5733 5732 5731 5729 5727 5726 5724 5723 5722 5720 5719 5718 5717
5760 5759 5758 5758 5758 5757 5756 5755 5754 5754 5754 5754 5754 5754 5753 5752 5751 5750 5748 5747 5746 5744 5743 5741 5740 5739 5738 5736 5735 5734 5733 5732 5731 5729 5728 5726 5725 5723 5722 5720 5719 5717 5716
5761 5760 5759 5758 5757 5757 5756 5754 5753 5752 5752 5752 5751 5751 5751 5750 5749 5748 5747 5745 5744 5743 5742 5741 5739 5738 5737 5736 5736 5734 5733 5732 5731 5730 5728 5727 5725 5723 5722 5720 5719 5717 5716
5762 5760 5759 5758 5757 5756 5755 5753 5751 5749 5749 5748 5748 5748 5748 5747 5747 5746 5745 5744 5743 5742 5741 5740 5739 5738 5737 5736 5735 5734 5733 5732 5730 5729 5728 5726 5725 5723 5722 5720 5719 5717 5715
5762 5761 5759 5758 5757 5755 5754 5753 5750 5748 5746 5745 5745 5745 5745 5744 5744 5744 5743 5743 5742 5741 5741 5739 5738 5737 5736 5736 5735 5734 5733 5731 5730 5729 5727 5726 5724 5723 5721 5720 5718 5717 5715
5763 5761 5759 5758 5757 5755 5753 5751 5749 5747 5745 5744 5744 5742 5742 5742 5743 5742 5742 5742 5741 5740 5739 5739 5737 5736 5735 5735 5734 5733 5732 5730 5729 5728 5726 5725 5724 5722 5721 5720 5718 5717 5715
5763 5762 5760 5758 5756 5754 5752 5751 5749 5745 5743 5744 5739 5736 5737 5740 5741 5741 5741 5740 5740 5739 5738 5737 5736 5735 5734 5733 5732 5731 5730 5729 5728 5727 5725 5724 5723 5721 5720 5719 5717 5716 5715
5763 5762 5759 5757 5756 5754 5752 5750 5748 5743 5742 5743 5737 5731 5727 5730 5736 5740 5740 5739 5739 5738 5737 5736 5735 5734 5733 5732 5731 5730 5729 5728 5727 5726 5724 5723 5722 5721 5719 5718 5716 5715 5714
5764 5762 5760 5758 5756 5754 5751 5750 5748 5744 5740 5740 5740 5733 5725 5722 5727 5733 5737 5738 5737 5737 5736 5735 5734 5733 5731 5730 5729 5728 5728 5727 5726 5725 5724 5722 5721 5720 5718 5717 5715 5714 5713
5764 5762 5761 5759 5756 5754 5752 5750 5749 5746 5742 5738 5738 5738 5737 5734 5726 5725 5731 5734 5736 5735 5735 5735 5733 5732 5730 5729 5728 5728 5727 5726 5725 5724 5723 5722 5720 5719 5717 5715 5714 5712 5711
5764 5762 5760 5758 5756 5754 5752 5750 5749 5747 5744 5740 5738 5736 5735 5733 5732 5725 5723 5727 5730 5733 5734 5733 5733 5731 5730 5729 5728 5727 5726 5725 5724 5723 5722 5721 5719 5717 5716 5714 5712 5711 5709
5762 5761 5760 5758 5756 5753 5752 5750 5749 5746 5744 5742 5740 5739 5736 5732 5730 5727 5724 5723 5724 5728 5731 5732 5732 5731 5730 5728 5728 5727 5726 5724 5723 5722 5721 5719 5718 5716 5714 5713 5711 5709 5707
5760 5760 5759 5757 5755 5754 5752 5750 5748 5746 5744 5742 5741 5739 5738 5737 5735 5731 5726 5723 5722 5725 5727 5729 5731 5730 5729 5728 5727 5726 5724 5723 5722 5720 5719 5718 5716 5714 5713 5711 5709 5707 5705
5761 5761 5759 5757 5755 5753 5752 5750 5747 5746 5744 5742 5742 5740 5739 5738 5736 5733 5729 5724 5719 5719 5722 5725 5729 5729 5728 5727 5726 5725 5723 5722 5721 5719 5718 5716 5714 5711 5710 5708 5707 5705 5703
5762 5760 5758 5756 5755 5753 5751 5748 5746 5744 5743 5741 5740 5739 5738 5738 5736 5735 5732 5729 5721 5714 5715 5721 5723 5727 5726 5725 5724 5722 5721 5719 5718 5717 5715 5713 5711 5709 5706 5705 5703 5702 5700
5760 5758 5756 5755 5752 5751 5749 5746 5744 5743 5741 5739 5738 5737 5736 5736 5735 5734 5732 5729 5726 5720 5715 5719 5722 5724 5724 5723 5722 5720 5718 5717 5716 5714 5712 5710 5708 5706 5703 5701 5699 5698 5696
5757 5756 5754 5752 5750 5748 5746 5743 5741 5740 5738 5736 5736 5735 5734 5734 5732 5731 5730 5727 5724 5721 5715 5718 5720 5721 5720 5719 5718 5716 5714 5713 5712 5710 5708 5706 5704 5701 5699 5697 5695 5693 5691
5756 5754 5751 5749 5747 5745 5743 5740 5738 5737 5734 5733 5732 5732 5731 5731 5729 5729 5727 5724 5722 5720 5716 5713 5715 5716 5716 5715 5713 5711 5709 5708 5707 5706 5704 5702 5699 5697 5694 5692 5690 5688 5685
5753 5751 5748 5745 5743 5741 5739 5737 5735 5733 5732 5731 5729 5728 5727 5726 5725 5724 5723 5721 5720 5718 5715 5712 5711 5712 5711 5711 5708 5706 5704 5702 5701 5701 5699 5697 5694 5692 5689 5687 5684 5682 5680
5748 5746 5744 5742 5740 5738 5736 5734 5732 5730 5728 5727 5726 5725 5725 5723 5721 5720 5719 5717 5716 5713 5710 5708 5706 5705 5704 5704 5702 5699 5696 5695 5695 5695 5693 5691 5689 5686 5683 5681 5679 5677 5675
5744 5742 5739 5736 5734 5733 5731 5729 5727 5726 5723 5722 5722 5721 5721 5721 5720 5718 5716 5714 5711 5708 5705 5702 5700 5699 5698 5697 5696 5695 5692 5689 5688 5688 5685 5684 5682 5679 5677 5675 5673 5671 5669
5739 5737 5734 5731 5729 5728 5727 5725 5723 5721 5719 5717 5716 5716 5716 5716 5716 5715 5713 5711 5709 5704 5700 5698 5696 5694 5694 5693 5692 5690 5685 5681 5678 5681 5678 5676 5674 5672 5671 5669 5668 5666 5663
5733 5730 5728 5726 5723 5722 5721 5720 5718 5716 5714 5712 5710 5709 5709 5710 5709 5708 5707 5706 5704 5703 5701 5697 5693 5692 5690 5690 5686 5683 5680 5677 5676 5676 5673 5670 5668 5666 5665 5663 5661 5659 5657
5726 5724 5722 5720 5718 5717 5715 5714 5712 5710 5708 5707 5706 5704 5703 5702 5702 5701 5699 5698 5697 5696 5695 5694 5692 5690 5688 5686 5683 5680 5677 5674 5672 5671 5669 5664 5663 5661 5659 5657 5655 5653 5651
5718 5716 5715 5713 5711 5710 5709 5708 5705 5703 5701 5700 5699 5698 5697 5696 5696 5695 5692 5689 5688 5688 5688 5687 5686 5684 5682 5680 5677 5672 5668 5664 5662 5663 5662 5659 5657 5654 5652 5651 5650 5646 5644
5711 5709 5707 5706 5705 5703 5702 5701 5698 5696 5693 5691 5691 5691 5691 5689 5689 5687 5684 5682 5679 5680 5679 5677 5676 5675 5673 5671 5669 5666 5662 5658 5655 5655 5656 5653 5650 5647 5643 5644 5642 5639 5636